Stations météo

réclame
Mon MeteoGroup
Gelbelsee, Allemagne (10777): Température de l'air & dewpoint: 12.06.2018 13:00:00 - 18.06.2018 13:00:00 (CEST)Gelbelsee, Allemagne (10777): Température de l'air 5cm & Température de l'air -5cm: 12.06.2018 13:00:00 - 18.06.2018 13:00:00 (CEST)Gelbelsee, Allemagne (10777): Température de l'air -20cm & Température de l'air -100cm: 12.06.2018 13:00:00 - 18.06.2018 13:00:00 (CEST)Gelbelsee, Allemagne (10777): Vitesse du vent & gusts: 12.06.2018 13:00:00 - 18.06.2018 13:00:00 (CEST)Gelbelsee, Allemagne (10777): Direction du vent: 12.06.2018 13:00:00 - 18.06.2018 13:00:00 (CEST)Gelbelsee, Allemagne (10777): reduced air pressure: 12.06.2018 13:00:00 - 18.06.2018 13:00:00 (CEST)Gelbelsee, Allemagne (10777): visibility: 12.06.2018 13:00:00 - 18.06.2018 13:00:00 (CEST)Gelbelsee, Allemagne (10777): Ensoleillement: 12.06.2018 13:00:00 - 18.06.2018 13:00:00 (CEST)Gelbelsee, Allemagne (10777): Quantités de précipitations: 12.06.2018 13:00:00 - 18.06.2018 13:00:00 (CEST)
Date & Time tt [°C] td [°C] tt 5cm [°C] tt -5cm [°C] tt -20cm [°C] tt -100cm [°C] ff [km/h] ff [knt] fx [km/h] fx [knt] dd ppp [hPa] vv [km] sd [min] rr [mm]
18.06.2018 13:00:00 19,6 9,9 24,9 27,5 19,6 16,2 12 7 25 13 WSW 1021,7 28 55 0,0
18.06.2018 12:00:00 19,2 11,0 24,7 25,3 19,1 16,2 10 5 25 14 WSW 1021,7 24 60 0,0
18.06.2018 11:00:00 17,7 10,2 24,5 22,3 18,8 16,2 12 7 26 14 WNW 1022,0 11 55 0,0
18.06.2018 10:00:00 16,8 11,4 20,7 19,4 18,7 16,2 10 6 19 11 WNW 1022,2 18 1 0,0
18.06.2018 09:00:00 15,0 10,5 16,5 17,7 18,8 16,2 14 8 21 12 WNW 1022,5 25 0 0,0
18.06.2018 08:00:00 14,6 10,8 15,3 16,8 18,9 16,2 9 5 18 10 NW 1021,9 28 1 0,0
18.06.2018 07:00:00 14,6 11,1 15,0 16,3 19,1 16,2 9 5 14 7 WNW 1021,6 29 1 0,0
18.06.2018 06:00:00 14,4 11,0 14,2 16,1 19,4 16,2 9 5 16 9 WNW 1021,4 38 0 0,0
18.06.2018 05:00:00 14,2 11,4 13,0 16,2 19,7 16,2 9 5 16 9 WNW 1021,2 30 0 0,0
18.06.2018 04:00:00 14,7 11,6 13,6 16,5 20,0 16,2 10 5 16 9 WNW 1021,0 31 0 0,0
18.06.2018 03:00:00 15,3 11,4 14,2 17,1 20,3 16,2 11 6 17 9 WNW 1020,8 34 0 0,0
18.06.2018 02:00:00 15,5 11,5 14,4 17,6 20,6 16,2 9 5 14 8 WNW 1020,6 33 0 0,0
18.06.2018 01:00:00 16,0 11,5 14,5 18,1 20,9 16,2 8 5 13 7 WNW 1020,1 35 0 0,0
18.06.2018 00:00:00 16,3 11,5 14,8 18,7 21,3 16,2 9 5 14 8 WNW 1020,0 48 0 0,0
17.06.2018 23:00:00 17,0 11,6 15,9 19,6 21,6 16,2 7 4 13 7 WNW 1019,4 43 0 0,0
17.06.2018 22:00:00 17,6 11,4 16,3 20,5 21,9 16,2 8 5 16 9 NW 1018,9 49 0 0,0
17.06.2018 21:00:00 18,2 11,6 16,8 21,9 22,1 16,2 6 4 18 10 NW 1017,9 42 0 0,0
17.06.2018 20:00:00 19,4 11,3 19,0 23,9 22,1 16,2 13 7 29 15 NNW 1017,2 27 42 0,0
17.06.2018 19:00:00 20,5 11,7 21,2 25,1 22,0 16,2 17 9 33 18 NW 1016,5 21 26 0,0
17.06.2018 18:00:00 21,5 12,4 23,6 28,0 21,6 16,2 13 7 34 19 NNW 1015,8 20 51 0,0
17.06.2018 17:00:00 22,0 12,2 26,1 28,6 21,2 16,2 16 9 30 16 WNW 1016,1 19 56 0,0
17.06.2018 16:00:00 21,0 11,4 24,6 27,1 20,8 16,2 20 11 31 17 W 1016,5 10 32 0,0
17.06.2018 15:00:00 20,7 14,3 23,9 24,8 20,6 16,2 14 7 27 14 NW 1016,4 17 1 0,0
17.06.2018 14:00:00 20,7 13,9 23,5 23,9 20,3 16,2 13 7 21 12 NW 1016,5 24 0 0,0
17.06.2018 13:00:00 19,4 14,4 19,1 25,0 19,9 16,2 11 6 24 13 NW 1016,8 18 17 0,1
17.06.2018 12:00:00 20,3 13,9 25,0 25,1 19,4 16,2 16 9 27 14 NNW 1016,6 14 11 0,0
17.06.2018 11:00:00 20,9 14,0 27,0 24,2 18,9 16,2 16 9 26 14 NNW 1016,3 14 45 0,0
17.06.2018 10:00:00 20,4 14,4 24,9 21,9 18,6 16,2 13 7 20 11 WNW 1016,2 12 39 0,0
17.06.2018 09:00:00 18,9 12,3 21,1 20,1 18,5 16,2 10 6 21 11 NW 1016,1 15 39 0,0
17.06.2018 08:00:00 19,0 11,5 22,4 17,9 18,6 16,2 8 5 13 7 WNW 1015,8 10 59 0,0
17.06.2018 07:00:00 16,1 11,4 15,8 16,1 18,8 16,2 6 3 9 5 SW 1015,9 23 4 0,0
17.06.2018 06:00:00 15,1 11,2 13,2 16,0 19,0 16,2 4 2 6 3 WSW 1016,1 21 0 0,0
17.06.2018 05:00:00 14,4 11,2 13,8 15,9 19,3 16,2 3 1 5 3 NW 1016,1 22 0 0,0
17.06.2018 04:00:00 14,9 9,9 11,6 15,5 19,7 16,2 2 1 6 3 WSW 1015,9 32 0 0,0
17.06.2018 03:00:00 14,5 9,9 10,7 16,0 20,1 16,2 2 1 5 3 NW 1016,0 29 0 0,0
17.06.2018 02:00:00 16,2 11,0 11,6 16,6 20,5 16,2 3 1 5 3 N 1015,6 29 0 0,0
17.06.2018 01:00:00 16,3 10,7 11,7 17,3 21,0 16,2 4 2 6 3 NNW 1015,8 28 0 0,0
17.06.2018 00:00:00 16,4 10,7 12,2 18,2 21,4 16,2 7 4 10 5 NNW 1015,9 34 0 0,0
16.06.2018 23:00:00 17,3 10,3 13,4 19,3 21,8 16,3 5 3 7 4 NW 1015,5 33 0 0,0
16.06.2018 22:00:00 17,6 10,1 14,2 20,8 22,2 16,3 5 3 9 5 W 1015,2 30 0 0,0
16.06.2018 21:00:00 19,4 8,3 16,0 22,8 22,4 16,3 0 0 6 4 N 1014,3 49 0 0,0
16.06.2018 20:00:00 21,3 8,8 18,8 24,8 22,5 16,3 5 3 6 4 SW 1013,8 54 21 0,0
16.06.2018 19:00:00 22,4 11,8 22,5 26,8 22,4 16,3 4 2 9 5 WSW 1013,3 44 19 0,0
16.06.2018 18:00:00 23,3 8,2 24,9 29,4 21,9 16,3 6 3 16 9 SE 1013,2 44 39 0,0
16.06.2018 17:00:00 23,8 8,9 27,9 31,1 21,3 16,3 6 3 19 11 ESE 1013,3 27 51 0,0
16.06.2018 16:00:00 22,6 8,8 25,2 30,7 20,6 16,3 9 5 21 12 ENE 1013,7 26 36 0,0
16.06.2018 15:00:00 22,7 8,9 27,9 31,9 19,6 16,3 10 5 20 11 ESE 1014,0 24 60 0,0
16.06.2018 14:00:00 22,3 7,7 27,6 29,7 18,7 16,3 8 4 18 10 E 1014,6 19 60 0,0
16.06.2018 13:00:00 22,6 10,1 28,2 27,2 17,9 16,3 6 3 19 10 SE 1014,9 18 60 0,0
16.06.2018 12:00:00 21,5 10,7 26,2 23,8 17,3 16,4 10 5 18 10 ESE 1015,4 15 51 0,0
16.06.2018 11:00:00 21,1 11,5 25,1 22,0 16,7 16,4 9 5 16 9 E 1015,3 16 60 0,0
16.06.2018 10:00:00 19,7 11,4 22,9 19,7 16,4 16,4 10 5 18 10 ESE 1015,7 7 60 0,0
16.06.2018 09:00:00 18,0 10,4 20,2 17,4 16,2 16,4 13 7 19 10 ESE 1016,2 2,7 60 0,0
16.06.2018 08:00:00 16,4 11,3 17,3 15,2 16,2 16,4 8 4 13 7 E 1016,3 6 60 0,0
16.06.2018 07:00:00 14,5 10,3 14,8 13,0 16,4 16,4 6 3 9 5 E 1016,5 23 60 0,0
16.06.2018 06:00:00 12,0 9,3 9,8 12,1 16,7 16,4 5 3 9 5 NNE 1016,9 21 12 0,0
16.06.2018 05:00:00 12,7 9,3 8,4 12,3 17,0 16,4 5 3 11 6 NNE 1016,8 24 0 0,0
16.06.2018 04:00:00 12,9 8,8 8,9 12,7 17,4 16,4 8 4 8 5 N 1017,0 26 0 0,0
16.06.2018 03:00:00 12,9 8,9 8,7 13,1 17,7 16,4 7 4 9 5 N 1017,2 35 0 0,0
16.06.2018 02:00:00 13,3 8,8 8,7 13,6 18,1 16,4 6 3 8 4 N 1017,3 33 0 0,0
16.06.2018 01:00:00 13,2 8,9 9,1 14,2 18,5 16,4 6 3 6 3 N 1017,7 36 0 0,0
16.06.2018 00:00:00 13,9 9,5 9,5 15,0 18,8 16,5 4 2 4 2 NNW 1017,3 34 0 0,0
15.06.2018 23:00:00 14,8 8,8 10,0 16,0 19,2 16,5 4 2 6 3 NNW 1017,1 39 0 0,0
15.06.2018 22:00:00 15,1 9,4 11,1 17,3 19,5 16,5 5 3 7 4 NNW 1017,0 38 2 0,0
15.06.2018 21:00:00 17,2 10,1 14,6 19,2 19,6 16,5 5 3 10 5 NW 1016,2 43 54 0,0
15.06.2018 20:00:00 18,9 9,6 18,1 20,7 19,7 16,5 8 4 14 8 NNW 1015,8 53 60 0,0
15.06.2018 19:00:00 18,5 9,9 18,0 21,6 19,6 16,5 9 5 13 7 NW 1015,7 48 36 0,0
15.06.2018 18:00:00 19,4 9,5 20,1 23,7 19,4 16,5 8 4 16 9 N 1015,6 43 39 0,0
15.06.2018 17:00:00 20,5 9,5 23,7 23,4 19,0 16,6 6 3 14 7 NNW 1015,5 35 24 0,0
15.06.2018 16:00:00 20,2 7,3 24,5 25,0 18,6 16,6 5 3 16 9 WSW 1015,9 27 29 0,0
15.06.2018 15:00:00 19,5 9,6 23,3 25,0 18,1 16,6 7 4 21 11 NE 1016,1 24 28 0,0
15.06.2018 14:00:00 19,7 7,8 22,9 24,7 17,5 16,6 6 3 17 9 NW 1016,2 26 46 0,0
15.06.2018 13:00:00 18,2 7,3 21,0 22,0 17,0 16,6 6 3 14 8 NNW 1016,7 45 19 0,0
15.06.2018 12:00:00 17,4 6,9 20,3 21,9 16,4 16,6 8 4 13 7 NW 1016,9 42 25 0,0
15.06.2018 11:00:00 17,7 7,5 22,8 20,1 15,9 16,6 6 3 11 6 SW 1016,8 26 33 0,0
15.06.2018 10:00:00 16,5 6,3 18,3 18,4 15,6 16,6 4 2 10 5 NNE 1017,0 51 52 0,0
15.06.2018 09:00:00 15,9 9,1 19,0 15,7 15,4 16,6 4 2 7 4 ESE 1017,2 29 13 0,0
15.06.2018 08:00:00 13,9 9,0 14,6 13,8 15,4 16,6 2 1 7 4 NW 1017,5 28 0 0,0
15.06.2018 07:00:00 12,0 9,9 12,0 12,5 15,6 16,6 3 2 7 4 W 1017,8 16 1 0,0
15.06.2018 06:00:00 10,4 8,6 10,3 11,7 15,8 16,7 4 2 6 4 W 1018,0 19 0 0,0
15.06.2018 05:00:00 10,0 7,6 8,4 11,3 16,0 16,7 4 2 6 4 WNW 1018,0 32 0 0,0
15.06.2018 04:00:00 10,9 7,3 6,7 11,7 16,3 16,7 6 4 9 5 WSW 1017,7 28 0 0,0
15.06.2018 03:00:00 12,1 7,6 10,1 12,6 16,6 16,7 8 4 11 6 WSW 1017,6 34 0 0,0
15.06.2018 02:00:00 11,3 7,9 9,1 12,3 16,9 16,7 8 4 10 5 WSW 1017,8 33 0 0,0
15.06.2018 01:00:00 11,1 8,2 9,7 12,9 17,2 16,7 2 1 6 3 SW 1017,9 36 0 0,0
15.06.2018 00:00:00 11,3 7,8 7,8 13,2 17,5 16,7 4 2 6 4 SW 1018,0 36 0 0,0
14.06.2018 23:00:00 11,3 8,5 9,0 14,1 17,9 16,7 2 1 4 2 SE 1017,8 52 0 0,0
14.06.2018 22:00:00 12,2 7,5 9,1 15,2 18,1 16,7 3 2 8 4 SW 1017,4 35 0 0,0
14.06.2018 21:00:00 14,2 9,2 12,3 17,1 18,2 16,8 5 3 10 5 WSW 1016,3 67 19 0,0
14.06.2018 20:00:00 15,3 8,6 14,9 18,5 18,1 16,8 5 3 12 7 SW 1015,6 57 19 0,0
14.06.2018 19:00:00 16,1 7,5 16,6 19,4 18,0 16,8 5 3 9 5 SSW 1015,5 56 2 0,0
14.06.2018 18:00:00 16,1 7,5 18,2 19,8 17,8 16,8 4 2 10 5 WNW 1015,6 55 0 0,0
14.06.2018 17:00:00 16,3 7,4 18,2 20,7 17,5 16,8 4 2 9 5 W 1015,5 56 5 0,0
14.06.2018 16:00:00 15,9 7,0 18,4 20,9 17,1 16,8 4 2 10 6 N 1015,9 50 0 0,0
14.06.2018 15:00:00 15,5 8,1 18,5 19,2 16,9 16,8 5 3 9 5 ENE 1016,3 43 0 0,0
14.06.2018 14:00:00 14,6 8,0 16,2 17,8 16,7 16,8 3 2 9 5 S 1016,8 51 0 0,0
14.06.2018 13:00:00 14,2 8,1 15,6 18,1 16,4 16,8 4 2 9 5 NNE 1017,1 52 0 0,0
14.06.2018 12:00:00 14,3 7,2 15,8 17,3 16,2 16,8 4 2 7 4 ESE 1017,1 52 0 0,0
14.06.2018 11:00:00 13,9 8,7 15,7 17,0 16,0 16,8 4 2 13 7 N 1017,1 42 0 0,0
14.06.2018 10:00:00 13,3 8,8 15,6 15,6 15,9 16,8 6 3 12 6 N 1017,2 35 0 0,0
14.06.2018 09:00:00 12,3 8,9 13,3 14,2 15,9 16,8 6 3 10 6 NE 1017,3 30 0 0,0
14.06.2018 08:00:00 11,8 9,3 12,2 13,4 16,0 16,8 8 4 12 6 N 1017,3 32 0 0,0
14.06.2018 07:00:00 11,3 9,3 11,4 12,9 16,1 16,9 7 4 10 5 N 1017,1 32 0 0,0
14.06.2018 06:00:00 11,0 9,2 10,8 12,8 16,3 16,9 4 2 7 4 N 1017,1 35 0 0,0
14.06.2018 05:00:00 11,0 9,1 10,7 12,8 16,4 16,9 4 2 8 4 N 1017,1 35 0 0,0
14.06.2018 04:00:00 11,1 8,6 10,7 12,9 16,6 16,9 6 3 8 5 NW 1017,1 42 0 0,0
14.06.2018 03:00:00 11,1 8,5 10,7 12,9 16,7 16,9 6 3 9 5 NW 1017,2 60 0 0,0
14.06.2018 02:00:00 11,3 8,4 10,9 13,1 16,9 16,9 7 4 11 6 NW 1017,2 50 0 0,0
14.06.2018 01:00:00 11,6 8,2 11,1 13,2 17,1 16,9 6 3 13 7 NNW 1017,1 70 0 0,0
14.06.2018 00:00:00 11,8 8,4 11,3 13,5 17,3 16,9 9 5 14 8 NW 1016,9 57 0 0,0
13.06.2018 23:00:00 12,1 8,8 11,6 13,8 17,5 16,9 7 4 11 6 NW 1016,7 53 0 0,0
13.06.2018 22:00:00 12,4 8,3 11,9 14,1 17,8 16,9 8 4 18 10 NW 1016,0 52 0 0,0
13.06.2018 21:00:00 12,7 8,4 12,4 14,6 17,9 16,9 10 6 23 12 NW 1015,2 50 0 0,0
13.06.2018 20:00:00 13,3 8,3 13,2 15,5 18,1 16,9 12 7 21 11 NW 1014,5 64 0 0,0
13.06.2018 19:00:00 13,3 8,9 13,6 15,8 18,2 16,9 14 8 34 18 NNW 1013,8 52 0 0,0
13.06.2018 18:00:00 14,0 8,5 14,6 16,6 18,2 16,9 18 10 33 18 NNW 1013,0 28 0 0,0
13.06.2018 17:00:00 14,2 9,1 15,7 17,1 18,2 16,9 19 10 36 19 NNW 1012,6 21 0 0,0
13.06.2018 16:00:00 13,8 9,2 14,8 17,1 18,2 16,9 22 12 34 19 NNW 1012,3 19 0 0,0
13.06.2018 15:00:00 13,9 9,4 14,8 17,9 18,1 16,9 25 14 40 22 NNW 1012,0 12 0 0,0
13.06.2018 14:00:00 14,0 10,2 15,4 17,9 18,0 16,9 18 10 34 18 NW 1011,6 26 0 0,0
13.06.2018 13:00:00 14,1 9,9 16,2 16,6 18,0 16,9 17 9 29 16 N 1011,5 10 0 0,0
13.06.2018 12:00:00 13,0 9,7 13,5 16,1 18,0 16,9 15 8 32 17 NNW 1011,3 13 0 0,0
13.06.2018 11:00:00 12,6 9,8 12,9 15,4 18,2 16,9 16 9 29 16 NNW 1011,1 15 0 0,0
13.06.2018 10:00:00 11,8 10,2 12,1 15,3 18,3 16,9 18 10 35 19 N 1010,8 14 0 0,0
13.06.2018 09:00:00 11,9 10,5 12,1 15,1 18,5 16,9 22 12 38 20 N 1010,2 10 0 0,0
13.06.2018 08:00:00 12,0 11,0 11,9 14,9 18,7 16,9 23 12 41 22 N 1009,5 7 0 0,0
13.06.2018 07:00:00 12,4 10,9 12,0 15,1 19,0 16,9 16 9 29 16 N 1009,1 14 0 0,1
13.06.2018 06:00:00 12,6 11,5 12,2 15,5 19,2 16,9 16 8 26 14 NNW 1008,9 11 0 0,0
13.06.2018 05:00:00 13,6 12,5 13,2 16,0 19,4 16,9 16 9 23 12 N 1008,2 7 0 0,2
13.06.2018 04:00:00 14,2 13,4 13,9 16,4 19,6 16,9 13 7 21 12 N 1007,9 4,8 0 0,0
13.06.2018 03:00:00 14,6 13,9 14,4 16,8 19,9 16,9 11 6 18 10 N 1008,0 4,6 0 0,0
13.06.2018 02:00:00 14,9 14,2 14,6 17,1 20,1 16,9 11 6 16 9 N 1008,0 4,7 0 0,0
13.06.2018 01:00:00 15,3 14,7 14,9 17,5 20,3 16,8 11 6 15 8 N 1008,0 6 0 0,0
13.06.2018 00:00:00 15,7 15,1 15,5 17,7 20,6 16,8 7 4 16 9 N 1008,1 5 0 1,5
12.06.2018 23:00:00 16,0 15,6 15,8 18,2 20,9 16,8 9 5 21 11 N 1008,1 3,4 0 4,4
12.06.2018 22:00:00 16,4 15,5 16,1 19,1 21,2 16,8 9 5 29 16 NE 1008,1 3,7 0 0,4
12.06.2018 21:00:00 17,9 15,6 17,6 19,9 21,4 16,8 9 5 22 12 NW 1006,9 18 0 0,0
12.06.2018 20:00:00 18,3 15,8 18,1 20,6 21,5 16,8 11 6 22 12 NNW 1006,6 25 0 0,0
12.06.2018 19:00:00 19,4 15,7 19,5 21,9 21,5 16,8 11 6 17 9 NNW 1006,4 33 0 0,0
12.06.2018 18:00:00 20,6 16,7 22,2 23,1 21,5 16,8 11 6 22 12 NNW 1006,3 16 4 0,0
12.06.2018 17:00:00 19,8 17,2 22,2 23,1 21,4 16,8 12 7 19 10 NNW 1006,7 14 4 0,0
12.06.2018 16:00:00 19,0 15,9 20,3 22,7 21,3 16,8 9 5 19 10 N 1007,3 19 8 0,1
12.06.2018 15:00:00 18,8 16,7 19,8 22,9 21,2 16,8 11 6 17 9 WNW 1007,6 13 2 0,0
12.06.2018 14:00:00 19,9 16,7 20,4 23,5 21,0 16,8 5 3 9 5 S 1007,8 26 0 0,3
12.06.2018 13:00:00 20,2 15,4 21,9 24,0 20,6 16,8 5 3 9 5 SW 1008,1 20 1 0,0

tt = Température de l'air
td = dewpoint
tt 5cm = Température de l'air 5cm
tt -5cm = Température de l'air -5cm
tt -20cm = Température de l'air -20cm
tt -100cm = Température de l'air -100cm
ff = Vitesse du vent
fx = gusts
dd = Direction du vent
ppp = reduced air pressure
vv = visibility
sd = Ensoleillement
rr = Quantités de précipitations

stations d'obs. à proximité